,,,PA_Meas_PMT16A,,PR_Meas_QMR101_102,,RH_Meas_QMH101,,SR_Meas_QMS101,,TA_Meas_QMH101,,GenWind,,GenWind,
date,time,status,PA,status,PR,status,RH,status,SR,status,TA,status,DirAvg,status,SpdAvg,
2011-08-07, 00:00:04,VALID,1008.709,VALID,0.0,VALID,99.73,VALID,0.0,VALID,25.156,VALID,229.0,VALID,0.243,
2011-08-07, 00:01:04,VALID,1008.704,VALID,0.0,VALID,99.752,VALID,0.0,VALID,25.117,VALID,229.0,VALID,0.046,
2011-08-07, 00:02:04,VALID,1008.711,VALID,0.0,VALID,100.042,VALID,0.0,VALID,25.078,VALID,229.0,VALID,0.003,
2011-08-07, 00:03:04,VALID,1008.695,VALID,0.0,VALID,100.347,VALID,0.0,VALID,25.058,VALID,229.0,VALID,0.014,
2011-08-07, 00:04:04,VALID,1008.713,VALID,0.0,VALID,100.538,VALID,0.0,VALID,25.039,VALID,229.0,VALID,0.0,
2011-08-07, 00:05:04,VALID,1008.689,VALID,0.0,VALID,100.675,VALID,0.0,VALID,25.019,VALID,229.0,VALID,0.0,
2011-08-07, 00:06:04,VALID,1008.698,VALID,0.0,VALID,100.492,VALID,0.0,VALID,25.0,VALID,229.0,VALID,0.0,
2011-08-07, 00:07:04,VALID,1008.693,VALID,0.0,VALID,100.683,VALID,0.0,VALID,24.941,VALID,229.0,VALID,0.0,
2011-08-07, 00:08:04,VALID,1008.708,VALID,0.0,VALID,100.988,VALID,0.0,VALID,24.902,VALID,229.0,VALID,0.0,
2011-08-07, 00:09:04,VALID,1008.704,VALID,0.0,VALID,101.156,VALID,0.106,VALID,24.883,VALID,229.0,VALID,0.0,
2011-08-07, 00:10:04,VALID,1008.693,VALID,0.0,VALID,101.43,VALID,0.106,VALID,24.863,VALID,229.0,VALID,0.0,
2011-08-07, 00:11:04,VALID,1008.677,VALID,0.0,VALID,101.476,VALID,0.0,VALID,24.844,VALID,229.0,VALID,0.0,
2011-08-07, 00:12:04,VALID,1008.697,VALID,0.0,VALID,101.499,VALID,0.0,VALID,24.824,VALID,229.0,VALID,0.0,
2011-08-07, 00:13:04,VALID,1008.687,VALID,0.0,VALID,101.689,VALID,0.0,VALID,24.785,VALID,229.0,VALID,0.0,
2011-08-07, 00:14:04,VALID,1008.673,VALID,0.0,VALID,101.72,VALID,0.0,VALID,24.746,VALID,229.0,VALID,0.035,
2011-08-07, 00:15:04,VALID,1008.649,VALID,0.0,VALID,101.994,VALID,0.106,VALID,24.766,VALID,229.0,VALID,0.0,
2011-08-07, 00:16:04,VALID,1008.642,VALID,0.0,VALID,102.063,VALID,0.0,VALID,24.727,VALID,229.0,VALID,0.224,
2011-08-07, 00:17:04,VALID,1008.62,VALID,0.0,VALID,102.231,VALID,0.0,VALID,24.688,VALID,229.0,VALID,0.164,
2011-08-07, 00:18:04,VALID,1008.635,VALID,0.0,VALID,102.277,VALID,0.0,VALID,24.649,VALID,229.0,VALID,0.125,
2011-08-07, 00:19:04,VALID,1008.586,VALID,0.0,VALID,102.299,VALID,0.0,VALID,24.61,VALID,229.0,VALID,0.142,
2011-08-07, 00:20:04,VALID,1008.554,VALID,0.0,VALID,102.338,VALID,0.0,VALID,24.571,VALID,229.0,VALID,0.187,
2011-08-07, 00:21:04,VALID,1008.532,VALID,0.0,VALID,102.414,VALID,0.0,VALID,24.532,VALID,229.0,VALID,0.102,
2011-08-07, 00:22:04,VALID,1008.521,VALID,0.0,VALID,102.597,VALID,0.0,VALID,24.512,VALID,229.0,VALID,0.004,
2011-08-07, 00:23:04,VALID,1008.522,VALID,0.0,VALID,102.849,VALID,0.0,VALID,24.493,VALID,229.0,VALID,0.012,
2011-08-07, 00:24:04,VALID,1008.493,VALID,0.0,VALID,103.108,VALID,0.106,VALID,24.512,VALID,229.0,VALID,0.019,
2011-08-07, 00:25:04,VALID,1008.498,VALID,0.0,VALID,103.199,VALID,0.0,VALID,24.512,VALID,229.0,VALID,0.061,
2011-08-07, 00:26:04,VALID,1008.514,VALID,0.0,VALID,103.245,VALID,0.0,VALID,24.512,VALID,229.0,VALID,0.0,
2011-08-07, 00:27:04,VALID,1008.497,VALID,0.0,VALID,103.306,VALID,0.0,VALID,24.512,VALID,229.0,VALID,0.0,
2011-08-07, 00:28:04,VALID,1008.446,VALID,0.0,VALID,103.276,VALID,0.0,VALID,24.493,VALID,229.0,VALID,0.0,
2011-08-07, 00:29:04,VALID,1008.445,VALID,0.0,VALID,103.268,VALID,0.0,VALID,24.495,VALID,229.0,VALID,0.0,
2011-08-07, 00:30:04,VALID,1008.423,VALID,0.0,VALID,103.306,VALID,0.0,VALID,24.474,VALID,229.0,VALID,0.0,
2011-08-07, 00:31:04,VALID,1008.411,VALID,0.0,VALID,103.253,VALID,0.0,VALID,24.475,VALID,229.0,VALID,0.131,
2011-08-07, 00:32:04,VALID,1008.406,VALID,0.0,VALID,103.367,VALID,0.0,VALID,24.435,VALID,229.0,VALID,0.132,
2011-08-07, 00:33:04,VALID,1008.382,VALID,0.0,VALID,103.413,VALID,0.0,VALID,24.454,VALID,229.0,VALID,0.124,
2011-08-07, 00:34:04,VALID,1008.38,VALID,0.0,VALID,103.489,VALID,0.0,VALID,24.435,VALID,229.0,VALID,0.195,
2011-08-07, 00:35:04,VALID,1008.349,VALID,0.0,VALID,103.611,VALID,0.0,VALID,24.435,VALID,229.0,VALID,0.375,
2011-08-07, 00:36:04,VALID,1008.376,VALID,0.0,VALID,103.687,VALID,0.0,VALID,24.435,VALID,229.0,VALID,0.275,
2011-08-07, 00:37:04,VALID,1008.402,VALID,0.0,VALID,103.771,VALID,0.0,VALID,24.435,VALID,229.0,VALID,0.257,
2011-08-07, 00:38:04,VALID,1008.384,VALID,0.0,VALID,103.817,VALID,0.0,VALID,24.435,VALID,229.0,VALID,0.302,
2011-08-07, 00:39:04,VALID,1008.376,VALID,0.0,VALID,103.855,VALID,0.0,VALID,24.435,VALID,229.0,VALID,0.41,
2011-08-07, 00:40:04,VALID,1008.385,VALID,0.0,VALID,103.909,VALID,0.0,VALID,24.415,VALID,229.0,VALID,0.353,
2011-08-07, 00:41:04,VALID,1008.385,VALID,0.0,VALID,104.0,VALID,0.0,VALID,24.435,VALID,229.0,VALID,0.294,
2011-08-07, 00:42:04,VALID,1008.394,VALID,0.0,VALID,104.0,VALID,0.0,VALID,24.435,VALID,231.0,VALID,0.529,
2011-08-07, 00:43:04,VALID,1008.396,VALID,0.0,VALID,104.0,VALID,0.0,VALID,24.415,VALID,232.0,VALID,0.28,
2011-08-07, 00:44:04,VALID,1008.385,VALID,0.0,VALID,104.0,VALID,0.0,VALID,24.454,VALID,206.0,VALID,0.231,
2011-08-07, 00:45:04,VALID,1008.358,VALID,0.0,VALID,104.0,VALID,0.0,VALID,24.474,VALID,228.0,VALID,0.318,
2011-08-07, 00:46:04,VALID,1008.36,VALID,0.0,VALID,103.863,VALID,0.0,VALID,24.454,VALID,228.0,VALID,0.104,
2011-08-07, 00:47:04,VALID,1008.314,VALID,0.0,VALID,103.764,VALID,0.0,VALID,24.435,VALID,228.0,VALID,0.138,
2011-08-07, 00:48:04,VALID,1008.325,VALID,0.0,VALID,103.611,VALID,0.0,VALID,24.415,VALID,228.0,VALID,0.313,
2011-08-07, 00:49:04,VALID,1008.294,VALID,0.0,VALID,103.626,VALID,0.0,VALID,24.374,VALID,228.0,VALID,0.281,
2011-08-07, 00:50:04,VALID,1008.295,VALID,0.0,VALID,103.672,VALID,0.0,VALID,24.376,VALID,228.0,VALID,0.0,
2011-08-07, 00:51:04,VALID,1008.319,VALID,0.0,VALID,103.726,VALID,0.0,VALID,24.337,VALID,228.0,VALID,0.1,
2011-08-07, 00:52:04,VALID,1008.289,VALID,0.0,VALID,103.733,VALID,0.0,VALID,24.298,VALID,228.0,VALID,0.11,
2011-08-07, 00:53:04,VALID,1008.28,VALID,0.0,VALID,103.703,VALID,0.0,VALID,24.24,VALID,228.0,VALID,0.215,
2011-08-07, 00:54:04,VALID,1008.272,VALID,0.0,VALID,103.794,VALID,0.0,VALID,24.22,VALID,228.0,VALID,0.2,
2011-08-07, 00:55:04,VALID,1008.251,VALID,0.0,VALID,103.84,VALID,0.0,VALID,24.201,VALID,228.0,VALID,0.0,
2011-08-07, 00:56:04,VALID,1008.26,VALID,0.0,VALID,103.985,VALID,0.0,VALID,24.201,VALID,228.0,VALID,0.265,
2011-08-07, 00:57:04,VALID,1008.217,VALID,0.0,VALID,104.0,VALID,0.0,VALID,24.181,VALID,228.0,VALID,0.322,
2011-08-07, 00:58:04,VALID,1008.238,VALID,0.0,VALID,104.0,VALID,0.0,VALID,24.162,VALID,228.0,VALID,0.048,
2011-08-07, 00:59:04,VALID,1008.231,VALID,0.0,VALID,104.0,VALID,0.0,VALID,24.123,VALID,228.0,VALID,0.0,
2011-08-07, 01:00:04,VALID,1008.221,VALID,0.0,VALID,104.0,VALID,0.0,VALID,24.103,VALID,228.0,VALID,0.522,
2011-08-07, 01:01:04,VALID,1008.214,VALID,0.0,VALID,104.0,VALID,0.0,VALID,24.084,VALID,228.0,VALID,0.394,
2011-08-07, 01:02:04,VALID,1008.222,VALID,0.0,VALID,104.0,VALID,0.0,VALID,24.064,VALID,228.0,VALID,0.005,
2011-08-07, 01:03:04,VALID,1008.224,VALID,0.0,VALID,104.0,VALID,0.0,VALID,24.064,VALID,228.0,VALID,0.319,
2011-08-07, 01:04:04,VALID,1008.209,VALID,0.0,VALID,104.0,VALID,0.0,VALID,24.086,VALID,228.0,VALID,0.38,
2011-08-07, 01:05:04,VALID,1008.193,VALID,0.0,VALID,104.0,VALID,0.0,VALID,24.045,VALID,228.0,VALID,0.432,
2011-08-07, 01:06:04,VALID,1008.182,VALID,0.0,VALID,104.0,VALID,0.0,VALID,24.025,VALID,228.0,VALID,0.469,
2011-08-07, 01:07:04,VALID,1008.194,VALID,0.0,VALID,104.0,VALID,0.0,VALID,23.986,VALID,228.0,VALID,0.148,
2011-08-07, 01:08:04,VALID,1008.194,VALID,0.0,VALID,104.0,VALID,0.0,VALID,23.947,VALID,228.0,VALID,0.294,
2011-08-07, 01:09:04,VALID,1008.176,VALID,0.0,VALID,104.0,VALID,0.0,VALID,23.928,VALID,227.0,VALID,0.372,
2011-08-07, 01:10:04,VALID,1008.141,VALID,0.0,VALID,104.0,VALID,0.0,VALID,23.928,VALID,227.0,VALID,0.465,
2011-08-07, 01:11:04,VALID,1008.124,VALID,0.0,VALID,104.0,VALID,0.0,VALID,23.928,VALID,345.0,VALID,0.684,
2011-08-07, 01:12:04,VALID,1008.156,VALID,0.0,VALID,104.0,VALID,0.0,VALID,23.889,VALID,345.0,VALID,0.183,
2011-08-07, 01:13:04,VALID,1008.102,VALID,0.0,VALID,104.0,VALID,0.0,VALID,23.869,VALID,345.0,VALID,0.2,
2011-08-07, 01:14:04,VALID,1008.095,VALID,0.0,VALID,104.0,VALID,0.0,VALID,23.85,VALID,345.0,VALID,0.014,
2011-08-07, 01:15:04,VALID,1008.089,VALID,0.0,VALID,104.0,VALID,0.0,VALID,23.83,VALID,345.0,VALID,0.354,
2011-08-07, 01:16:04,VALID,1008.097,VALID,0.0,VALID,104.0,VALID,0.0,VALID,23.83,VALID,345.0,VALID,0.484,
2011-08-07, 01:17:04,VALID,1008.095,VALID,0.0,VALID,104.0,VALID,0.0,VALID,23.811,VALID,345.0,VALID,0.191,
2011-08-07, 01:18:04,VALID,1008.113,VALID,0.0,VALID,104.0,VALID,0.0,VALID,23.791,VALID,345.0,VALID,0.4,
2011-08-07, 01:19:04,VALID,1008.107,VALID,0.0,VALID,104.0,VALID,0.0,VALID,23.791,VALID,345.0,VALID,0.532,
2011-08-07, 01:20:04,VALID,1008.113,VALID,0.0,VALID,104.0,VALID,0.0,VALID,23.772,VALID,345.0,VALID,0.497,
2011-08-07, 01:21:04,VALID,1008.1,VALID,0.0,VALID,104.0,VALID,0.0,VALID,23.772,VALID,345.0,VALID,0.0,
2011-08-07, 01:22:04,VALID,1008.105,VALID,0.0,VALID,104.0,VALID,0.0,VALID,23.752,VALID,345.0,VALID,0.147,
2011-08-07, 01:23:04,VALID,1008.061,VALID,0.0,VALID,104.0,VALID,0.106,VALID,23.752,VALID,345.0,VALID,0.53,
2011-08-07, 01:24:04,VALID,1008.102,VALID,0.0,VALID,104.0,VALID,0.0,VALID,23.752,VALID,345.0,VALID,0.198,
2011-08-07, 01:25:04,VALID,1008.098,VALID,0.0,VALID,104.0,VALID,0.0,VALID,23.733,VALID,345.0,VALID,0.132,
2011-08-07, 01:26:04,VALID,1008.106,VALID,0.0,VALID,104.0,VALID,0.0,VALID,23.733,VALID,345.0,VALID,0.0,
2011-08-07, 01:27:04,VALID,1008.081,VALID,0.0,VALID,104.0,VALID,0.0,VALID,23.712,VALID,345.0,VALID,0.015,
2011-08-07, 01:28:04,VALID,1008.118,VALID,0.0,VALID,104.0,VALID,0.0,VALID,23.713,VALID,345.0,VALID,0.0,
2011-08-07, 01:29:04,VALID,1008.096,VALID,0.0,VALID,104.0,VALID,0.0,VALID,23.713,VALID,345.0,VALID,0.386,
2011-08-07, 01:30:04,VALID,1008.088,VALID,0.0,VALID,104.0,VALID,0.106,VALID,23.713,VALID,345.0,VALID,0.493,
2011-08-07, 01:31:04,VALID,1008.098,VALID,0.0,VALID,104.0,VALID,0.0,VALID,23.735,VALID,357.0,VALID,0.579,
2011-08-07, 01:32:04,VALID,1008.089,VALID,0.0,VALID,104.0,VALID,0.0,VALID,23.713,VALID,357.0,VALID,0.378,
2011-08-07, 01:33:04,VALID,1008.082,VALID,0.0,VALID,104.0,VALID,0.0,VALID,23.694,VALID,357.0,VALID,0.282,
2011-08-07, 01:34:04,VALID,1008.064,VALID,0.0,VALID,104.0,VALID,0.0,VALID,23.675,VALID,357.0,VALID,0.107,
2011-08-07, 01:35:04,VALID,1008.051,VALID,0.0,VALID,104.0,VALID,0.0,VALID,23.634,VALID,357.0,VALID,0.17,
2011-08-07, 01:36:04,VALID,1008.044,VALID,0.0,VALID,104.0,VALID,0.0,VALID,23.614,VALID,357.0,VALID,0.263,
2011-08-07, 01:37:04,VALID,1008.038,VALID,0.0,VALID,104.0,VALID,0.106,VALID,23.636,VALID,357.0,VALID,0.46,
2011-08-07, 01:38:04,VALID,1008.061,VALID,0.0,VALID,104.0,VALID,0.106,VALID,23.595,VALID,357.0,VALID,0.327,
2011-08-07, 01:39:04,VALID,1008.055,VALID,0.0,VALID,104.0,VALID,0.0,VALID,23.595,VALID,357.0,VALID,0.343,
2011-08-07, 01:40:04,VALID,1008.03,VALID,0.0,VALID,104.0,VALID,0.0,VALID,23.597,VALID,357.0,VALID,0.337,
2011-08-07, 01:41:04,VALID,1008.033,VALID,0.0,VALID,104.0,VALID,0.0,VALID,23.597,VALID,357.0,VALID,0.383,
2011-08-07, 01:42:04,VALID,1008.049,VALID,0.0,VALID,104.0,VALID,0.0,VALID,23.577,VALID,357.0,VALID,0.222,
2011-08-07, 01:43:04,VALID,1008.043,VALID,0.0,VALID,104.0,VALID,0.0,VALID,23.558,VALID,357.0,VALID,0.217,
2011-08-07, 01:44:04,VALID,1008.035,VALID,0.0,VALID,104.0,VALID,0.106,VALID,23.536,VALID,357.0,VALID,0.243,
2011-08-07, 01:45:04,VALID,1008.032,VALID,0.0,VALID,104.0,VALID,0.106,VALID,23.538,VALID,357.0,VALID,0.17,
2011-08-07, 01:46:04,VALID,1008.025,VALID,0.0,VALID,104.0,VALID,0.0,VALID,23.497,VALID,357.0,VALID,0.0,
2011-08-07, 01:47:04,VALID,1008.04,VALID,0.0,VALID,104.0,VALID,0.0,VALID,23.517,VALID,357.0,VALID,0.011,
2011-08-07, 01:48:04,VALID,1008.031,VALID,0.0,VALID,104.0,VALID,0.0,VALID,23.497,VALID,357.0,VALID,0.0,
2011-08-07, 01:49:04,VALID,1008.008,VALID,0.0,VALID,104.0,VALID,0.0,VALID,23.499,VALID,357.0,VALID,0.0,
2011-08-07, 01:50:04,VALID,1008.009,VALID,0.0,VALID,104.0,VALID,0.0,VALID,23.499,VALID,357.0,VALID,0.0,
2011-08-07, 01:51:04,VALID,1008.014,VALID,0.0,VALID,104.0,VALID,0.0,VALID,23.48,VALID,357.0,VALID,0.207,
2011-08-07, 01:52:04,VALID,1007.974,VALID,0.0,VALID,104.0,VALID,0.0,VALID,23.48,VALID,357.0,VALID,0.801,
2011-08-07, 01:53:04,VALID,1007.989,VALID,0.0,VALID,104.0,VALID,0.0,VALID,23.499,VALID,357.0,VALID,1.027,
2011-08-07, 01:54:04,VALID,1008.004,VALID,0.0,VALID,104.0,VALID,0.0,VALID,23.48,VALID,357.0,VALID,0.315,
2011-08-07, 01:55:04,VALID,1008.01,VALID,0.0,VALID,104.0,VALID,0.0,VALID,23.419,VALID,357.0,VALID,0.003,
2011-08-07, 01:56:04,VALID,1007.998,VALID,0.0,VALID,104.0,VALID,0.0,VALID,23.458,VALID,357.0,VALID,0.537,
2011-08-07, 01:57:04,VALID,1008.021,VALID,0.0,VALID,104.0,VALID,0.0,VALID,23.478,VALID,357.0,VALID,0.439,
2011-08-07, 01:58:04,VALID,1008.02,VALID,0.0,VALID,104.0,VALID,0.0,VALID,23.499,VALID,357.0,VALID,0.257,
2011-08-07, 01:59:04,VALID,1008.027,VALID,0.0,VALID,104.0,VALID,0.0,VALID,23.458,VALID,357.0,VALID,0.023,
2011-08-07, 02:00:04,VALID,1008.043,VALID,0.0,VALID,104.0,VALID,0.0,VALID,23.48,VALID,357.0,VALID,0.278,
2011-08-07, 02:01:04,VALID,1008.017,VALID,0.0,VALID,104.0,VALID,0.0,VALID,23.48,VALID,357.0,VALID,0.299,
2011-08-07, 02:02:04,VALID,1008.001,VALID,0.0,VALID,104.0,VALID,0.0,VALID,23.46,VALID,357.0,VALID,0.322,
2011-08-07, 02:03:04,VALID,1008.002,VALID,0.0,VALID,104.0,VALID,0.0,VALID,23.458,VALID,357.0,VALID,0.457,
2011-08-07, 02:04:04,VALID,1007.966,VALID,0.0,VALID,104.0,VALID,0.0,VALID,23.46,VALID,357.0,VALID,0.354,
2011-08-07, 02:05:04,VALID,1007.958,VALID,0.0,VALID,104.0,VALID,0.0,VALID,23.441,VALID,357.0,VALID,0.406,
2011-08-07, 02:06:04,VALID,1007.95,VALID,0.0,VALID,104.0,VALID,0.106,VALID,23.441,VALID,357.0,VALID,0.217,
2011-08-07, 02:07:04,VALID,1007.972,VALID,0.0,VALID,104.0,VALID,0.0,VALID,23.421,VALID,357.0,VALID,0.287,
2011-08-07, 02:08:04,VALID,1007.952,VALID,0.0,VALID,104.0,VALID,0.106,VALID,23.421,VALID,357.0,VALID,0.212,
2011-08-07, 02:09:04,VALID,1007.974,VALID,0.0,VALID,104.0,VALID,0.106,VALID,23.441,VALID,357.0,VALID,0.16,
2011-08-07, 02:10:04,VALID,1007.944,VALID,0.0,VALID,104.0,VALID,0.0,VALID,23.419,VALID,357.0,VALID,0.162,
2011-08-07, 02:11:04,VALID,1007.96,VALID,0.0,VALID,104.0,VALID,0.0,VALID,23.4,VALID,357.0,VALID,0.023,
2011-08-07, 02:12:04,VALID,1007.943,VALID,0.0,VALID,104.0,VALID,0.0,VALID,23.419,VALID,357.0,VALID,0.236,
2011-08-07, 02:13:04,VALID,1007.949,VALID,0.0,VALID,104.0,VALID,0.0,VALID,23.421,VALID,357.0,VALID,0.35,
2011-08-07, 02:14:04,VALID,1007.925,VALID,0.0,VALID,104.0,VALID,0.0,VALID,23.421,VALID,357.0,VALID,0.289,
2011-08-07, 02:15:04,VALID,1007.905,VALID,0.0,VALID,104.0,VALID,0.0,VALID,23.421,VALID,357.0,VALID,0.184,
2011-08-07, 02:16:04,VALID,1007.898,VALID,0.0,VALID,104.0,VALID,0.0,VALID,23.402,VALID,357.0,VALID,0.143,
2011-08-07, 02:17:04,VALID,1007.896,VALID,0.0,VALID,104.0,VALID,0.0,VALID,23.402,VALID,357.0,VALID,0.0,
2011-08-07, 02:18:04,VALID,1007.861,VALID,0.0,VALID,104.0,VALID,0.0,VALID,23.382,VALID,357.0,VALID,0.0,
2011-08-07, 02:19:04,VALID,1007.891,VALID,0.0,VALID,104.0,VALID,0.0,VALID,23.382,VALID,357.0,VALID,0.272,
2011-08-07, 02:20:04,VALID,1007.88,VALID,0.0,VALID,104.0,VALID,0.0,VALID,23.382,VALID,357.0,VALID,0.473,
2011-08-07, 02:21:04,VALID,1007.917,VALID,0.0,VALID,104.0,VALID,0.0,VALID,23.382,VALID,357.0,VALID,0.327,
2011-08-07, 02:22:04,VALID,1007.895,VALID,0.0,VALID,104.0,VALID,0.0,VALID,23.382,VALID,357.0,VALID,0.429,
2011-08-07, 02:23:04,VALID,1007.929,VALID,0.0,VALID,104.0,VALID,0.0,VALID,23.402,VALID,56.0,VALID,0.781,
2011-08-07, 02:24:04,VALID,1007.906,VALID,0.0,VALID,104.0,VALID,0.0,VALID,23.421,VALID,63.0,VALID,0.401,
2011-08-07, 02:25:04,VALID,1007.913,VALID,0.0,VALID,104.0,VALID,0.0,VALID,23.421,VALID,63.0,VALID,0.4,
2011-08-07, 02:26:04,VALID,1007.888,VALID,0.0,VALID,104.0,VALID,0.0,VALID,23.402,VALID,63.0,VALID,0.193,
2011-08-07, 02:27:04,VALID,1007.899,VALID,0.0,VALID,104.0,VALID,0.0,VALID,23.421,VALID,63.0,VALID,0.155,
2011-08-07, 02:28:04,VALID,1007.903,VALID,0.0,VALID,104.0,VALID,0.0,VALID,23.38,VALID,63.0,VALID,0.086,
2011-08-07, 02:29:04,VALID,1007.878,VALID,0.0,VALID,104.0,VALID,0.106,VALID,23.402,VALID,63.0,VALID,0.289,
2011-08-07, 02:30:04,VALID,1007.859,VALID,0.0,VALID,104.0,VALID,0.0,VALID,23.402,VALID,63.0,VALID,0.373,
2011-08-07, 02:31:04,VALID,1007.834,VALID,0.0,VALID,104.0,VALID,0.0,VALID,23.382,VALID,63.0,VALID,0.312,
2011-08-07, 02:32:04,VALID,1007.821,VALID,0.0,VALID,104.0,VALID,0.106,VALID,23.342,VALID,63.0,VALID,0.0,
2011-08-07, 02:33:04,VALID,1007.834,VALID,0.0,VALID,104.0,VALID,0.0,VALID,23.343,VALID,63.0,VALID,0.0,
2011-08-07, 02:34:04,VALID,1007.829,VALID,0.0,VALID,104.0,VALID,0.0,VALID,23.304,VALID,63.0,VALID,0.0,
2011-08-07, 02:35:04,VALID,1007.84,VALID,0.0,VALID,104.0,VALID,0.0,VALID,23.285,VALID,63.0,VALID,0.0,
2011-08-07, 02:36:04,VALID,1007.86,VALID,0.0,VALID,104.0,VALID,0.0,VALID,23.285,VALID,63.0,VALID,0.0,
2011-08-07, 02:37:04,VALID,1007.824,VALID,0.0,VALID,104.0,VALID,0.0,VALID,23.265,VALID,63.0,VALID,0.0,
2011-08-07, 02:38:04,VALID,1007.802,VALID,0.0,VALID,104.0,VALID,0.0,VALID,23.265,VALID,63.0,VALID,0.0,
2011-08-07, 02:39:04,VALID,1007.812,VALID,0.0,VALID,104.0,VALID,0.0,VALID,23.304,VALID,63.0,VALID,0.0,
2011-08-07, 02:40:04,VALID,1007.805,VALID,0.0,VALID,104.0,VALID,0.0,VALID,23.324,VALID,63.0,VALID,0.0,
2011-08-07, 02:41:04,VALID,1007.818,VALID,0.0,VALID,104.0,VALID,0.0,VALID,23.324,VALID,63.0,VALID,0.0,
2011-08-07, 02:42:04,VALID,1007.798,VALID,0.0,VALID,104.0,VALID,0.0,VALID,23.324,VALID,63.0,VALID,0.011,
2011-08-07, 02:43:04,VALID,1007.792,VALID,0.0,VALID,104.0,VALID,0.0,VALID,23.343,VALID,63.0,VALID,0.0,
2011-08-07, 02:44:04,VALID,1007.796,VALID,0.0,VALID,104.0,VALID,0.0,VALID,23.365,VALID,63.0,VALID,0.0,
2011-08-07, 02:45:04,VALID,1007.752,VALID,0.0,VALID,104.0,VALID,0.0,VALID,23.324,VALID,63.0,VALID,0.0,
2011-08-07, 02:46:04,VALID,1007.735,VALID,0.0,VALID,104.0,VALID,0.0,VALID,23.345,VALID,63.0,VALID,0.0,
2011-08-07, 02:47:04,VALID,1007.746,VALID,0.0,VALID,104.0,VALID,0.0,VALID,23.324,VALID,63.0,VALID,0.0,
2011-08-07, 02:48:04,VALID,1007.746,VALID,0.0,VALID,104.0,VALID,0.0,VALID,23.304,VALID,63.0,VALID,0.0,
2011-08-07, 02:49:04,VALID,1007.717,VALID,0.0,VALID,104.0,VALID,0.0,VALID,23.304,VALID,63.0,VALID,0.0,
2011-08-07, 02:50:04,VALID,1007.726,VALID,0.0,VALID,104.0,VALID,0.0,VALID,23.304,VALID,63.0,VALID,0.0,
2011-08-07, 02:51:04,VALID,1007.728,VALID,0.0,VALID,104.0,VALID,0.0,VALID,23.285,VALID,63.0,VALID,0.0,
2011-08-07, 02:52:04,VALID,1007.717,VALID,0.0,VALID,104.0,VALID,0.106,VALID,23.304,VALID,63.0,VALID,0.0,
2011-08-07, 02:53:04,VALID,1007.723,VALID,0.0,VALID,104.0,VALID,0.0,VALID,23.304,VALID,63.0,VALID,0.0,
2011-08-07, 02:54:04,VALID,1007.681,VALID,0.0,VALID,104.0,VALID,0.0,VALID,23.283,VALID,63.0,VALID,0.0,
2011-08-07, 02:55:04,VALID,1007.699,VALID,0.0,VALID,104.0,VALID,0.0,VALID,23.285,VALID,63.0,VALID,0.0,
2011-08-07, 02:56:04,VALID,1007.66,VALID,0.0,VALID,104.0,VALID,0.0,VALID,23.285,VALID,63.0,VALID,0.0,
2011-08-07, 02:57:04,VALID,1007.681,VALID,0.0,VALID,104.0,VALID,0.0,VALID,23.304,VALID,63.0,VALID,0.0,
2011-08-07, 02:58:04,VALID,1007.666,VALID,0.0,VALID,104.0,VALID,0.0,VALID,23.265,VALID,63.0,VALID,0.188,
2011-08-07, 02:59:04,VALID,1007.677,VALID,0.0,VALID,104.0,VALID,0.0,VALID,23.226,VALID,63.0,VALID,0.379,
2011-08-07, 03:00:04,VALID,1007.68,VALID,0.0,VALID,104.0,VALID,0.0,VALID,23.207,VALID,63.0,VALID,0.408,
2011-08-07, 03:01:04,VALID,1007.673,VALID,0.0,VALID,104.0,VALID,0.0,VALID,23.187,VALID,63.0,VALID,0.274,
2011-08-07, 03:02:04,VALID,1007.658,VALID,0.0,VALID,104.0,VALID,0.0,VALID,23.187,VALID,58.0,VALID,0.485,
2011-08-07, 03:03:04,VALID,1007.667,VALID,0.0,VALID,104.0,VALID,0.0,VALID,23.207,VALID,58.0,VALID,0.415,
2011-08-07, 03:04:04,VALID,1007.658,VALID,0.0,VALID,104.0,VALID,0.0,VALID,23.168,VALID,58.0,VALID,0.373,
2011-08-07, 03:05:04,VALID,1007.64,VALID,0.0,VALID,104.0,VALID,0.0,VALID,23.129,VALID,58.0,VALID,0.357,
2011-08-07, 03:06:04,VALID,1007.59,VALID,0.0,VALID,104.0,VALID,0.0,VALID,23.09,VALID,58.0,VALID,0.373,
2011-08-07, 03:07:04,VALID,1007.586,VALID,0.0,VALID,104.0,VALID,0.0,VALID,23.071,VALID,58.0,VALID,0.444,
2011-08-07, 03:08:04,VALID,1007.562,VALID,0.0,VALID,104.0,VALID,0.106,VALID,23.051,VALID,58.0,VALID,0.39,
2011-08-07, 03:09:04,VALID,1007.555,VALID,0.0,VALID,104.0,VALID,0.106,VALID,23.051,VALID,58.0,VALID,0.2,
2011-08-07, 03:10:04,VALID,1007.54,VALID,0.0,VALID,104.0,VALID,0.0,VALID,23.032,VALID,58.0,VALID,0.342,
2011-08-07, 03:11:04,VALID,1007.518,VALID,0.0,VALID,104.0,VALID,0.0,VALID,23.032,VALID,58.0,VALID,0.25,
2011-08-07, 03:12:04,VALID,1007.521,VALID,0.0,VALID,104.0,VALID,0.0,VALID,23.032,VALID,58.0,VALID,0.198,
2011-08-07, 03:13:04,VALID,1007.495,VALID,0.0,VALID,104.0,VALID,0.0,VALID,23.032,VALID,58.0,VALID,0.283,
2011-08-07, 03:14:04,VALID,1007.479,VALID,0.0,VALID,104.0,VALID,0.106,VALID,23.032,VALID,58.0,VALID,0.375,
2011-08-07, 03:15:04,VALID,1007.469,VALID,0.0,VALID,104.0,VALID,0.0,VALID,23.051,VALID,58.0,VALID,0.26,
2011-08-07, 03:16:04,VALID,1007.461,VALID,0.0,VALID,104.0,VALID,0.106,VALID,23.032,VALID,58.0,VALID,0.224,
2011-08-07, 03:17:04,VALID,1007.472,VALID,0.0,VALID,104.0,VALID,0.0,VALID,22.993,VALID,58.0,VALID,0.152,
2011-08-07, 03:18:04,VALID,1007.483,VALID,0.0,VALID,104.0,VALID,0.0,VALID,22.993,VALID,58.0,VALID,0.279,
2011-08-07, 03:19:04,VALID,1007.513,VALID,0.0,VALID,104.0,VALID,0.0,VALID,22.973,VALID,58.0,VALID,0.176,
2011-08-07, 03:20:04,VALID,1007.461,VALID,0.0,VALID,104.0,VALID,0.106,VALID,22.971,VALID,58.0,VALID,0.295,
2011-08-07, 03:21:04,VALID,1007.483,VALID,0.0,VALID,104.0,VALID,0.0,VALID,22.993,VALID,44.0,VALID,0.463,
2011-08-07, 03:22:04,VALID,1007.504,VALID,0.0,VALID,104.0,VALID,0.0,VALID,22.973,VALID,44.0,VALID,0.409,
2011-08-07, 03:23:04,VALID,1007.506,VALID,0.0,VALID,104.0,VALID,0.0,VALID,22.973,VALID,44.0,VALID,0.652,
2011-08-07, 03:24:04,VALID,1007.514,VALID,0.0,VALID,104.0,VALID,0.0,VALID,22.993,VALID,44.0,VALID,0.384,
2011-08-07, 03:25:04,VALID,1007.531,VALID,0.0,VALID,104.0,VALID,0.0,VALID,22.993,VALID,44.0,VALID,0.324,
2011-08-07, 03:26:04,VALID,1007.543,VALID,0.0,VALID,104.0,VALID,0.0,VALID,22.993,VALID,44.0,VALID,0.488,
2011-08-07, 03:27:04,VALID,1007.555,VALID,0.0,VALID,104.0,VALID,0.0,VALID,23.014,VALID,38.0,VALID,0.555,
2011-08-07, 03:28:04,VALID,1007.568,VALID,0.0,VALID,104.0,VALID,0.0,VALID,23.032,VALID,38.0,VALID,0.382,
2011-08-07, 03:29:04,VALID,1007.579,VALID,0.0,VALID,104.0,VALID,0.0,VALID,23.032,VALID,37.0,VALID,0.176,
2011-08-07, 03:30:04,VALID,1007.598,VALID,0.0,VALID,104.0,VALID,0.0,VALID,23.032,VALID,37.0,VALID,0.139,
2011-08-07, 03:31:04,VALID,1007.588,VALID,0.0,VALID,104.0,VALID,0.0,VALID,23.012,VALID,37.0,VALID,0.149,
2011-08-07, 03:32:04,VALID,1007.589,VALID,0.0,VALID,104.0,VALID,0.0,VALID,23.012,VALID,38.0,VALID,0.184,
2011-08-07, 03:33:04,VALID,1007.577,VALID,0.0,VALID,104.0,VALID,0.0,VALID,23.012,VALID,38.0,VALID,0.166,
2011-08-07, 03:34:04,VALID,1007.599,VALID,0.0,VALID,104.0,VALID,0.0,VALID,23.012,VALID,38.0,VALID,0.0,
2011-08-07, 03:35:04,VALID,1007.64,VALID,0.0,VALID,104.0,VALID,0.0,VALID,23.032,VALID,37.0,VALID,0.0,
2011-08-07, 03:36:04,VALID,1007.675,VALID,0.0,VALID,104.0,VALID,0.0,VALID,23.051,VALID,38.0,VALID,0.0,
2011-08-07, 03:37:04,VALID,1007.673,VALID,0.0,VALID,104.0,VALID,0.0,VALID,23.051,VALID,38.0,VALID,0.104,
2011-08-07, 03:38:04,VALID,1007.703,VALID,0.0,VALID,104.0,VALID,0.0,VALID,23.09,VALID,38.0,VALID,0.146,
2011-08-07, 03:39:04,VALID,1007.701,VALID,0.0,VALID,104.0,VALID,0.0,VALID,23.09,VALID,38.0,VALID,0.149,
2011-08-07, 03:40:04,VALID,1007.703,VALID,0.0,VALID,104.0,VALID,0.0,VALID,23.131,VALID,38.0,VALID,0.01,
2011-08-07, 03:41:04,VALID,1007.736,VALID,0.0,VALID,104.0,VALID,0.0,VALID,23.131,VALID,38.0,VALID,0.2,
2011-08-07, 03:42:04,VALID,1007.745,VALID,0.0,VALID,104.0,VALID,0.0,VALID,23.109,VALID,38.0,VALID,0.294,